Hibbing, MN

7:56 AM CDT on October 21, 2017 (GMT -0500)
Chisholm-hibbing

Weather History for KHIB - January, 2013

Change the Weather History Date:

Wednesday, January 9, 2013

  Actual Average Record
Temperature  
Mean Temperature 23 °F -  
Max Temperature 30 °F 13 °F 43 °F (2012)
Min Temperature 16 °F -8 °F -43 °F (1977)
Degree Days  
Heating Degree Days 42    
Moisture  
Dew Point 19 °F    
Average Humidity 74    
Maximum Humidity 84    
Minimum Humidity 66    
Precipitation  
Precipitation 0.00 in - - ()
Sea Level Pressure  
Sea Level Pressure 29.97 in    
Wind  
Wind Speed 10 mph (West)    
Max Wind Speed 23 mph    
Max Gust Speed 41 mph    
Visibility 8 miles    
Events Snow    
Averages and records for this station are not official NWS values.
T = Trace of Precipitation, MM = Missing Value Source: NWS Daily Summary

Daily Weather History Graph

Daily Weather History Graph

Search for Another Location

Airport or City:

Trip Planner

Search our weather history database for the weather conditions in past years. The results will help you decide how hot, cold, wet, or windy it might be!

Date:

Astronomy

Jan. 09, 2013 Rise Set
Actual Time 7:57 AM CST 4:40 PM CST
Civil Twilight 7:22 AM CST 5:15 PM CST
Nautical Twilight 6:43 AM CST 5:54 PM CST
Astronomical Twilight 6:06 AM CST 6:31 PM CST
Moon 5:37 AM CST (1/9) 2:42 PM CST (1/9)
Length of Visible Light 9h 53m
Length of Day
8h 43m
Waning Crescent, 6% of the Moon is Illuminated
Jan 9
Waning Crescent
Jan 11
New
Jan 18
First Quarter
Jan 26
Full
Feb 3
Last Quarter

Hourly Weather History & Observations

Time (CST) Temp. Windchill Dew Point Humidity Pressure Visibility Wind Dir Wind Speed Gust Speed Precip Events Conditions
1:08 AM 30.2 °F 24.3 °F 24.8 °F 80% 29.66 in 10.0 mi SW 5.8 mph - N/A   Scattered Clouds
1:53 AM 28.9 °F 22.8 °F 24.1 °F 82% 29.72 in 10.0 mi SW 5.8 mph - N/A   Clear
2:53 AM 30.0 °F 21.7 °F 23.0 °F 75% 29.72 in 10.0 mi SW 9.2 mph - N/A   Overcast
3:08 AM 30.2 °F 21.9 °F 23.0 °F 75% 29.66 in 10.0 mi SW 9.2 mph - N/A   Overcast
3:53 AM 30.0 °F 20.5 °F 23.0 °F 75% 29.72 in 9.0 mi WSW 11.5 mph 18.4 mph N/A   Overcast
4:17 AM 30.2 °F 21.3 °F 24.8 °F 80% 29.66 in 1.8 mi WSW 10.4 mph 19.6 mph 0.00 in Snow Light Snow
4:27 AM 30.2 °F 20.8 °F 24.8 °F 80% 29.67 in 0.8 mi West 11.5 mph 18.4 mph 0.00 in Snow Light Snow
4:41 AM 30.2 °F 18.1 °F 24.8 °F 80% 29.68 in 1.0 mi West 18.4 mph 28.8 mph 0.00 in Snow Light Snow
4:53 AM 28.9 °F 17.7 °F 24.1 °F 82% 29.74 in 1.2 mi West 15.0 mph 29.9 mph 0.00 in Snow Light Snow
5:09 AM 30.2 °F 19.8 °F 23.0 °F 75% 29.70 in 3.0 mi West 13.8 mph 27.6 mph 0.00 in Snow Light Snow
5:12 AM 28.4 °F 17.0 °F 23.0 °F 80% 29.70 in 2.5 mi West 15.0 mph 26.5 mph 0.00 in Snow Light Snow
5:20 AM 28.4 °F 17.5 °F 23.0 °F 80% 29.71 in 2.5 mi WNW 13.8 mph 26.5 mph 0.00 in Snow Light Snow
5:33 AM 28.4 °F 15.8 °F 21.2 °F 74% 29.71 in 7.0 mi WNW 18.4 mph 26.5 mph 0.00 in Snow Light Snow
5:53 AM 28.9 °F 17.3 °F 19.9 °F 69% 29.78 in 5.0 mi West 16.1 mph 41.4 mph 0.00 in   Overcast
6:53 AM 28.9 °F 15.8 °F 19.0 °F 67% 29.86 in 10.0 mi West 20.7 mph 29.9 mph 0.00 in   Overcast
7:53 AM 28.0 °F 13.9 °F 18.0 °F 66% 29.93 in 10.0 mi WNW 23.0 mph 38.0 mph 0.00 in   Overcast
8:53 AM 28.0 °F 16.5 °F 18.0 °F 66% 29.99 in 10.0 mi WNW 15.0 mph 29.9 mph 0.00 in   Overcast
9:53 AM 27.0 °F 14.3 °F 18.0 °F 69% 30.04 in 7.0 mi WNW 17.3 mph 27.6 mph N/A   Overcast
10:53 AM 27.0 °F 15.6 °F 18.0 °F 69% 30.07 in 10.0 mi WNW 13.8 mph 21.9 mph N/A   Overcast
11:53 AM 28.0 °F 18.1 °F 18.0 °F 66% 30.11 in 10.0 mi WNW 11.5 mph 20.7 mph N/A   Overcast
12:53 PM 27.0 °F 16.7 °F 18.0 °F 69% 30.12 in 10.0 mi WNW 11.5 mph 21.9 mph N/A   Overcast
1:53 PM 27.0 °F 17.3 °F 18.0 °F 69% 30.17 in 10.0 mi WNW 10.4 mph - N/A   Overcast
2:53 PM 26.1 °F 16.8 °F 17.1 °F 69% 30.23 in 10.0 mi West 9.2 mph 19.6 mph N/A   Overcast
3:53 PM 26.1 °F 16.8 °F 16.0 °F 66% 30.27 in 10.0 mi WSW 9.2 mph - N/A   Overcast
4:53 PM 24.1 °F 17.0 °F 15.1 °F 69% 30.30 in 10.0 mi West 5.8 mph - N/A   Scattered Clouds
5:53 PM 19.0 °F - 14.0 °F 81% 30.32 in 10.0 mi Calm Calm - N/A   Clear
6:53 PM 16.0 °F - 12.0 °F 84% 30.30 in 10.0 mi Calm Calm - N/A   Overcast
7:53 PM 19.0 °F 12.3 °F 14.0 °F 81% 30.30 in 10.0 mi SE 4.6 mph - N/A   Overcast
8:53 PM 21.9 °F 14.5 °F 15.1 °F 75% 30.30 in 10.0 mi SE 5.8 mph - N/A   Overcast
9:53 PM 21.9 °F 15.7 °F 16.0 °F 78% 30.28 in 10.0 mi SE 4.6 mph - N/A   Overcast
10:53 PM 19.9 °F 13.4 °F 14.0 °F 78% 30.29 in 10.0 mi SE 4.6 mph - N/A   Scattered Clouds
11:53 PM 21.0 °F 16.2 °F 14.0 °F 74% 30.28 in 10.0 mi SSE 3.5 mph - N/A   Clear